Wind_Speed
56 58 61 62 60 64 65 67 69 75 79 82 85 88 91 91 91 90 86 84 84 84 84 84 85 86 86 87 87 88 89 92 93 84 87 86 85 84 81 83 86 89 91
61 63 63 62 66 67 69 72 76 81 84 86 89 91 92 88 87 86 86 86 88 89 91 92 92 92 92 91 90 88 87 87 89 90 86 90 92 90 88 85 83 84 86
62 61 63 68 69 71 75 78 81 84 87 91 93 91 89 85 85 87 90 92 95 95 93 91 87 84 81 79 77 77 77 76 76 76 72 74 78 82 86 86 86 87 87
61 65 69 70 71 75 79 82 86 88 91 92 91 89 86 86 89 93 95 93 89 85 80 78 76 73 72 71 70 69 69 68 68 69 68 67 70 70 73 76 77 79 83
66 70 72 73 76 78 83 86 89 91 89 87 85 85 87 90 90 88 86 83 79 74 71 69 68 67 67 66 67 67 68 68 69 68 68 68 68 69 71 71 72 71 71
71 73 74 76 78 82 86 89 89 85 84 84 86 88 86 83 83 82 77 72 69 66 63 63 64 65 66 67 68 69 70 70 68 67 64 63 62 62 65 67 70 72 68
73 72 75 78 81 83 86 85 82 82 84 87 84 80 80 79 76 72 68 64 62 61 62 63 64 66 68 69 69 69 68 66 62 58 54 55 54 55 55 57 61 64 65
71 74 77 80 80 81 80 79 81 84 82 77 77 77 76 73 68 65 63 62 61 62 63 64 66 68 70 68 66 64 60 58 56 54 53 50 49 48 47 48 48 49 51
74 75 77 79 78 77 78 81 83 76 74 74 74 73 70 66 63 63 63 62 63 63 64 66 67 66 64 62 60 58 56 56 54 52 48 46 46 47 46 45 42 39 36
72 75 76 76 77 80 80 75 72 71 72 73 72 69 66 64 63 63 63 64 64 64 63 63 63 62 62 60 60 59 56 54 50 45 44 44 43 43 44 45 41 41 40
74 75 76 77 79 76 70 69 70 72 72 70 68 66 64 63 63 63 64 64 64 63 61 61 62 62 61 60 60 60 57 53 47 43 41 41 40 41 41 42 43 40 39
75 75 77 77 70 66 67 69 70 71 70 68 65 63 62 62 63 62 62 62 63 62 62 63 62 62 61 61 61 59 56 52 47 42 41 40 40 41 42 42 42 42 42
74 76 73 66 65 66 67 68 68 68 66 64 63 62 62 63 61 60 61 63 64 64 63 64 62 61 59 59 59 58 55 51 43 41 41 42 43 43 44 44 44 44 44
73 68 63 63 64 65 66 66 65 65 62 61 60 60 61 61 62 63 64 64 67 67 65 62 60 58 58 59 56 53 50 44 41 41 42 43 43 44 45 45 45 46 45
61 60 62 63 64 64 63 62 62 60 58 57 58 61 64 65 65 63 63 68 71 71 67 61 57 57 56 56 53 49 42 39 39 40 40 41 43 44 44 45 46 47 47
59 59 62 62 63 63 61 60 57 56 57 60 63 63 66 67 64 63 66 72 76 72 64 58 54 57 55 54 49 42 38 37 37 38 38 39 40 41 41 42 43 41 38
59 60 61 62 62 60 58 57 58 58 60 62 63 66 68 65 66 69 72 77 79 66 59 54 53 54 54 51 43 36 36 36 35 34 35 36 37 38 38 36 32 29 28
59 60 61 61 60 59 59 59 61 63 64 65 67 69 68 69 72 77 81 81 75 57 54 52 52 53 51 47 36 35 34 33 32 32 33 34 34 35 34 32 30 30 31
60 60 60 60 60 59 61 63 65 67 67 67 68 68 71 75 79 83 83 79 65 54 51 49 50 50 46 38 34 32 31 30 31 30 31 31 32 31 31 31 29 31 30
60 60 60 59 58 59 62 66 69 71 72 71 73 75 76 81 86 83 76 66 60 56 53 50 46 42 42 34 31 30 30 30 30 30 31 31 30 30 29 29 28 29 29
57 58 60 59 60 64 68 70 73 75 74 77 79 81 84 91 84 70 63 58 57 54 51 48 42 36 36 32 28 28 28 28 28 30 31 31 30 29 29 28 28 28 28
59 61 63 62 65 68 68 73 76 76 79 81 84 86 92 88 75 69 61 57 55 51 46 42 36 34 31 28 26 25 26 25 27 29 30 31 29 28 27 28 27 27 28
59 63 66 67 71 68 69 73 75 77 81 87 90 91 81 76 72 67 61 58 54 47 41 37 32 31 28 25 23 23 24 24 26 28 29 29 28 27 27 27 26 25 26
63 66 69 68 69 69 69 71 76 81 85 90 81 75 70 66 61 55 49 44 41 37 35 31 28 26 24 21 20 20 22 23 24 26 26 27 26 26 26 27 26 25 24
67 67 70 70 65 65 68 74 78 84 84 71 66 63 58 51 40 35 31 29 30 29 29 28 24 21 20 18 17 18 19 20 21 23 24 24 23 24 25 25 26 25 24
68 70 69 62 65 70 74 78 80 70 61 56 53 49 39 31 23 20 19 21 23 24 25 23 20 19 17 15 14 15 17 19 20 22 23 23 23 23 24 24 24 24 24
Wind_Direction
287 288 290 292 292 294 295 297 299 300 299 296 294 293 293 294 295 295 295 295 295 294 293 292 291 291 290 288 287 286 285 283 282 277 277 275 272 270 265 263 260 256 256
290 291 290 291 293 294 295 298 299 298 296 295 294 294 295 296 297 298 298 298 297 296 295 294 293 293 292 290 290 288 286 284 283 281 277 275 274 271 269 265 262 259 256
288 288 289 293 295 296 297 298 297 297 297 296 295 296 297 298 299 299 299 298 297 297 296 295 294 293 291 290 290 289 287 287 286 285 281 278 274 271 268 266 263 261 258
288 289 293 294 294 296 297 297 297 297 296 295 296 297 298 300 300 300 299 298 297 297 297 295 293 293 293 292 291 290 289 287 286 285 284 280 278 276 274 270 265 262 259
288 291 293 294 297 298 298 298 295 293 295 296 297 299 300 300 300 299 298 298 298 297 295 295 295 295 294 293 292 292 291 290 288 287 285 282 280 277 275 273 271 266 262
290 291 293 296 297 296 295 293 294 296 297 299 299 300 301 300 300 299 299 298 298 297 296 296 295 295 295 295 295 295 295 294 293 291 289 286 283 279 276 273 271 268 265
291 291 293 294 292 292 293 293 295 298 299 299 299 300 300 300 300 300 299 299 298 298 297 296 297 296 296 296 297 297 296 296 296 294 292 289 286 283 280 277 274 270 267
291 292 291 291 292 292 293 295 297 297 298 298 300 301 301 301 300 299 299 298 297 297 298 298 299 299 301 300 299 298 298 298 296 295 293 288 286 286 286 285 278 273 271
292 291 289 291 293 294 295 296 296 296 298 300 301 301 300 300 299 299 298 299 299 299 301 300 301 301 302 302 300 299 298 298 296 293 288 287 287 286 286 287 279 272 274
289 289 291 292 293 293 293 293 294 297 299 300 300 299 299 299 300 299 300 300 301 301 302 302 302 302 301 301 300 300 299 298 296 289 282 283 284 285 285 286 282 274 273
289 290 290 290 291 291 292 294 297 299 299 298 298 298 299 300 300 301 301 301 301 301 302 302 301 301 300 300 300 300 300 299 295 287 280 282 285 286 285 284 284 281 275
287 287 288 289 289 291 293 295 297 297 297 297 298 299 299 300 300 301 301 301 302 303 303 303 300 299 299 299 300 301 300 298 294 286 282 285 287 288 287 285 282 281 279
287 288 289 288 291 293 294 295 295 295 295 296 297 298 299 300 300 301 303 304 306 307 307 305 300 298 299 300 302 301 298 295 291 286 288 289 288 287 286 285 284 281 279
288 288 289 291 292 292 293 293 293 294 296 297 298 298 299 300 300 301 304 308 309 310 310 305 298 297 300 301 301 298 295 290 286 286 287 288 288 289 288 285 283 282 280
286 287 289 289 290 291 292 292 294 295 297 297 297 297 299 300 301 303 305 310 313 311 308 302 296 297 301 303 302 298 290 285 286 287 288 290 291 291 290 289 287 284 281
287 287 288 289 290 291 293 294 296 296 296 297 299 303 303 302 303 305 307 310 311 309 302 299 294 294 300 304 301 292 286 285 287 290 291 292 294 295 295 295 292 289 286
287 288 288 289 290 292 293 295 297 296 297 299 299 301 303 302 303 304 305 307 309 303 297 295 292 294 299 303 297 288 288 288 290 291 294 297 301 304 304 300 296 293 294
287 288 287 288 290 291 293 296 296 296 296 299 300 301 300 301 303 304 304 303 304 295 293 292 290 292 298 301 290 289 288 289 291 295 300 304 306 307 308 300 294 291 295
287 287 288 289 291 293 295 296 297 297 299 299 298 299 301 303 302 302 299 297 295 290 291 293 289 292 296 294 289 287 287 289 294 299 303 306 310 307 309 304 296 293 296
286 287 288 290 292 294 295 296 297 297 297 296 298 301 301 300 302 299 294 291 287 284 285 289 291 290 293 287 287 285 285 291 297 302 304 306 308 311 307 310 303 298 297
286 287 287 288 290 294 298 296 294 296 296 301 300 296 297 301 299 293 290 287 284 282 279 278 283 282 285 283 282 281 286 292 299 303 305 304 304 310 312 309 313 311 304
286 287 286 288 293 296 296 293 292 295 299 300 299 298 297 298 293 289 284 279 278 277 276 268 270 278 275 278 277 280 287 295 301 304 306 305 303 304 311 315 310 314 314
286 286 287 291 294 294 292 292 295 298 298 300 300 299 297 295 291 286 280 273 268 266 268 259 258 268 269 271 275 282 290 297 301 304 306 305 302 303 306 310 316 313 315
286 287 290 291 292 293 294 297 298 300 301 302 302 301 298 295 290 282 272 265 254 253 257 248 249 253 260 264 272 282 291 298 302 306 308 307 302 300 301 305 311 315 317
288 289 290 291 294 297 300 300 301 302 303 304 303 302 300 295 286 277 262 243 238 244 240 237 234 245 248 257 269 283 295 302 306 309 313 313 308 305 301 300 302 309 313
287 288 292 294 296 298 300 301 301 301 303 305 307 308 303 294 278 260 240 226 233 231 227 219 228 232 239 253 272 289 302 309 312 314 315 315 313 310 310 302 299 302 307
Height
5709 5705 5702 5699 5695 5692 5688 5683 5677 5671 5665 5659 5652 5645 5637 5628 5620 5613 5606 5599 5592 5586 5579 5573 5566 5560 5554 5548 5543 5538 5533 5525 5523 5541 5531 5529 5528 5528 5533 5534 5536 5541 5544
5695 5691 5687 5683 5680 5674 5670 5664 5658 5652 5646 5638 5631 5622 5614 5605 5597 5589 5583 5576 5569 5562 5555 5547 5540 5533 5526 5520 5514 5508 5502 5496 5490 5495 5507 5498 5494 5495 5497 5503 5507 5510 5514
5679 5675 5671 5667 5662 5657 5652 5644 5637 5632 5625 5616 5609 5600 5591 5584 5576 5569 5561 5554 5545 5536 5528 5521 5512 5506 5500 5494 5488 5483 5477 5472 5466 5463 5472 5465 5463 5461 5462 5466 5473 5478 5481
5662 5657 5653 5648 5643 5638 5631 5624 5618 5610 5602 5595 5587 5579 5571 5563 5555 5547 5539 5531 5521 5513 5505 5498 5491 5485 5479 5474 5468 5462 5457 5453 5448 5444 5444 5442 5437 5436 5432 5433 5440 5443 5446
5644 5640 5635 5630 5625 5618 5610 5605 5598 5590 5581 5574 5566 5558 5550 5542 5534 5525 5517 5509 5502 5494 5486 5479 5473 5468 5461 5456 5450 5445 5438 5433 5428 5424 5420 5419 5416 5414 5409 5410 5408 5414 5418
5629 5623 5617 5612 5605 5598 5591 5584 5576 5568 5561 5553 5546 5537 5529 5522 5514 5505 5497 5490 5483 5477 5470 5464 5458 5452 5445 5439 5433 5426 5419 5412 5408 5402 5400 5397 5393 5391 5387 5386 5384 5386 5394
5611 5604 5598 5592 5585 5578 5570 5563 5555 5548 5541 5534 5526 5519 5511 5502 5494 5487 5479 5473 5468 5461 5455 5448 5442 5435 5428 5421 5415 5408 5401 5394 5387 5383 5382 5377 5374 5370 5369 5367 5363 5363 5367
5592 5587 5579 5572 5565 5558 5552 5544 5535 5529 5522 5515 5508 5500 5491 5484 5477 5470 5464 5458 5452 5446 5439 5432 5425 5417 5409 5402 5395 5390 5384 5378 5373 5370 5364 5362 5357 5355 5352 5350 5348 5347 5349
5573 5566 5558 5551 5546 5542 5535 5526 5518 5511 5505 5497 5489 5481 5474 5467 5461 5454 5448 5442 5437 5431 5424 5416 5408 5401 5393 5385 5378 5373 5370 5365 5359 5354 5350 5347 5344 5341 5338 5335 5335 5335 5338
5551 5545 5540 5534 5529 5524 5515 5508 5501 5494 5486 5479 5471 5464 5457 5451 5444 5439 5433 5427 5421 5416 5409 5401 5393 5385 5378 5371 5364 5358 5354 5350 5346 5342 5339 5336 5332 5329 5326 5323 5322 5323 5325
5532 5528 5523 5518 5510 5503 5496 5491 5483 5475 5467 5461 5454 5447 5442 5436 5430 5423 5417 5410 5405 5400 5394 5387 5379 5371 5365 5358 5350 5344 5338 5334 5331 5327 5326 5323 5320 5317 5314 5312 5310 5310 5312
5515 5510 5505 5498 5492 5485 5479 5472 5465 5458 5451 5444 5437 5432 5427 5421 5415 5408 5401 5395 5389 5384 5378 5372 5364 5357 5351 5344 5336 5329 5324 5319 5315 5314 5312 5310 5308 5305 5303 5301 5299 5298 5298
5496 5491 5485 5478 5473 5468 5461 5454 5447 5440 5434 5428 5422 5417 5411 5406 5400 5393 5386 5380 5374 5368 5362 5356 5347 5341 5335 5328 5320 5314 5310 5306 5303 5301 5300 5298 5296 5294 5290 5288 5287 5285 5286
5477 5471 5467 5462 5455 5450 5443 5437 5430 5424 5418 5412 5407 5402 5397 5391 5385 5378 5372 5364 5357 5351 5346 5340 5332 5326 5321 5314 5308 5301 5296 5294 5292 5290 5289 5286 5283 5280 5277 5274 5273 5271 5271
5460 5454 5448 5444 5438 5432 5426 5420 5414 5408 5402 5397 5393 5387 5381 5376 5369 5362 5356 5349 5342 5335 5330 5323 5318 5313 5308 5302 5295 5289 5285 5283 5282 5279 5277 5274 5271 5267 5262 5259 5257 5255 5254
5443 5438 5431 5426 5420 5414 5409 5403 5399 5393 5388 5383 5377 5371 5365 5359 5352 5345 5339 5332 5325 5319 5313 5308 5304 5299 5295 5290 5283 5278 5275 5273 5271 5269 5266 5263 5259 5254 5250 5245 5241 5239 5237
5423 5419 5413 5408 5403 5398 5393 5388 5384 5378 5373 5367 5361 5355 5348 5343 5336 5329 5323 5316 5309 5304 5298 5294 5290 5287 5283 5277 5272 5268 5265 5263 5261 5258 5255 5251 5246 5241 5237 5233 5230 5227 5226
5407 5402 5396 5391 5386 5382 5377 5372 5367 5362 5356 5352 5345 5338 5331 5325 5319 5312 5305 5298 5292 5288 5283 5280 5277 5274 5270 5266 5262 5259 5256 5253 5251 5248 5245 5240 5236 5231 5227 5223 5220 5219 5216
5390 5385 5380 5375 5370 5365 5360 5355 5349 5343 5337 5332 5326 5320 5312 5305 5299 5293 5285 5279 5275 5272 5269 5266 5264 5261 5258 5255 5252 5249 5247 5245 5242 5239 5235 5231 5227 5224 5219 5215 5212 5208 5206
5373 5368 5363 5359 5354 5349 5343 5337 5330 5324 5318 5312 5305 5299 5291 5285 5277 5270 5263 5259 5256 5256 5254 5253 5251 5249 5246 5244 5243 5240 5238 5236 5233 5229 5226 5223 5219 5215 5212 5207 5202 5199 5196
5356 5352 5347 5342 5337 5331 5325 5318 5311 5305 5298 5290 5283 5275 5267 5258 5252 5246 5243 5240 5238 5237 5238 5238 5239 5237 5235 5234 5233 5232 5230 5227 5224 5221 5217 5214 5211 5208 5203 5199 5195 5190 5187
5339 5335 5330 5325 5319 5312 5306 5299 5292 5284 5276 5267 5259 5250 5240 5230 5224 5221 5219 5219 5218 5220 5221 5223 5225 5225 5225 5224 5224 5223 5221 5219 5216 5213 5209 5206 5202 5199 5196 5192 5188 5184 5180
5322 5318 5312 5306 5300 5293 5286 5279 5271 5262 5253 5243 5233 5222 5210 5202 5195 5192 5192 5195 5198 5202 5205 5208 5212 5213 5214 5215 5215 5214 5213 5211 5208 5205 5201 5197 5194 5191 5189 5186 5182 5178 5175
5304 5299 5293 5286 5280 5273 5266 5259 5251 5240 5230 5218 5205 5195 5184 5175 5169 5166 5167 5172 5179 5185 5190 5196 5200 5202 5204 5206 5206 5207 5205 5203 5201 5197 5194 5190 5187 5184 5182 5179 5176 5173 5169
5285 5279 5273 5267 5260 5254 5247 5239 5230 5219 5208 5196 5185 5174 5163 5155 5150 5149 5150 5157 5166 5172 5178 5184 5189 5193 5196 5198 5199 5199 5198 5196 5193 5190 5187 5184 5181 5178 5175 5172 5170 5167 5164
5265 5259 5254 5248 5242 5236 5228 5220 5210 5200 5191 5182 5170 5159 5150 5144 5141 5142 5145 5151 5157 5163 5170 5176 5181 5185 5188 5191 5192 5192 5191 5188 5186 5184 5181 5178 5175 5172 5169 5166 5163 5160 5158